Time,TemperatureF,DewpointF,PressureIn,WindDirection,WindDirectionDegrees,WindSpeedMPH,WindSpeedGustMPH,Humidity,HourlyPrecipIn,Conditions,Clouds,dailyrainin,SoftwareType,DateUTC
2013-06-05 00:05:00,54.0,44.0,30.11,SSW,202,2.0,10.0,69,0.00,,,0.00,Weather View 32 v70,2013-06-05 04:05:00,
2013-06-05 00:14:00,54.0,44.4,30.11,WNW,292,1.0,10.0,70,0.00,,,0.00,Weather View 32 v70,2013-06-05 04:14:00,
2013-06-05 00:19:00,54.0,44.4,30.11,South,180,2.0,10.0,70,0.00,,,0.00,Weather View 32 v70,2013-06-05 04:19:00,
2013-06-05 00:30:00,54.0,44.0,30.11,WSW,248,2.0,7.0,69,0.00,,,0.00,Weather View 32 v70,2013-06-05 04:30:00,
2013-06-05 00:34:00,54.0,43.7,30.11,WNW,292,3.0,7.0,68,0.00,,,0.00,Weather View 32 v70,2013-06-05 04:34:00,
2013-06-05 00:42:00,54.0,44.4,30.11,SSW,202,1.0,6.0,70,0.00,,,0.00,Weather View 32 v70,2013-06-05 04:42:00,
2013-06-05 00:49:00,54.0,44.4,30.11,WNW,292,2.0,6.0,70,0.00,,,0.00,Weather View 32 v70,2013-06-05 04:49:00,
2013-06-05 00:54:00,54.0,44.4,30.11,West,270,2.0,6.0,70,0.00,,,0.00,Weather View 32 v70,2013-06-05 04:54:00,
2013-06-05 01:04:00,55.0,44.6,30.11,West,270,1.0,5.0,68,0.00,,,0.00,Weather View 32 v70,2013-06-05 05:04:00,
2013-06-05 01:14:00,55.0,44.2,30.11,WSW,248,2.0,8.0,67,0.00,,,0.00,Weather View 32 v70,2013-06-05 05:14:00,
2013-06-05 01:24:00,55.0,44.2,30.11,WNW,292,1.0,8.0,67,0.00,,,0.00,Weather View 32 v70,2013-06-05 05:24:00,
2013-06-05 01:34:00,55.0,44.2,30.11,WNW,292,2.0,8.0,67,0.00,,,0.00,Weather View 32 v70,2013-06-05 05:34:00,
2013-06-05 01:42:00,55.0,44.2,30.11,SW,225,1.0,8.0,67,0.00,,,0.00,Weather View 32 v70,2013-06-05 05:42:00,
2013-06-05 01:49:00,55.0,44.2,30.11,WNW,292,2.0,8.0,67,0.00,,,0.00,Weather View 32 v70,2013-06-05 05:49:00,
2013-06-05 01:55:00,54.0,43.7,30.11,SW,225,1.0,8.0,68,0.00,,,0.00,Weather View 32 v70,2013-06-05 05:55:00,
2013-06-05 02:04:00,54.0,44.0,30.11,WNW,292,1.0,8.0,69,0.00,,,0.00,Weather View 32 v70,2013-06-05 06:04:00,
2013-06-05 02:14:00,54.0,44.8,30.12,West,270,2.0,8.0,71,0.00,,,0.00,Weather View 32 v70,2013-06-05 06:14:00,
2013-06-05 02:24:00,54.0,44.0,30.12,West,270,1.0,8.0,69,0.00,,,0.00,Weather View 32 v70,2013-06-05 06:24:00,
2013-06-05 02:34:00,54.0,44.0,30.12,West,270,1.0,10.0,69,0.00,,,0.00,Weather View 32 v70,2013-06-05 06:34:00,
2013-06-05 02:43:00,54.0,44.0,30.12,SW,225,2.0,10.0,69,0.00,,,0.00,Weather View 32 v70,2013-06-05 06:43:00,
2013-06-05 02:49:00,54.0,44.4,30.12,SW,225,1.0,10.0,70,0.00,,,0.00,Weather View 32 v70,2013-06-05 06:49:00,
2013-06-05 02:59:00,54.0,44.0,30.12,WNW,292,0.0,10.0,69,0.00,,,0.00,Weather View 32 v70,2013-06-05 06:59:00,
2013-06-05 03:05:00,54.0,44.0,30.12,WNW,292,1.0,10.0,69,0.00,,,0.00,Weather View 32 v70,2013-06-05 07:05:00,
2013-06-05 03:14:00,54.0,44.0,30.12,West,270,1.0,10.0,69,0.00,,,0.00,Weather View 32 v70,2013-06-05 07:14:00,
2013-06-05 03:24:00,53.0,43.5,30.12,West,270,0.0,10.0,70,0.00,,,0.00,Weather View 32 v70,2013-06-05 07:24:00,
2013-06-05 03:34:00,53.0,43.5,30.12,SW,225,1.0,7.0,70,0.00,,,0.00,Weather View 32 v70,2013-06-05 07:34:00,
2013-06-05 03:43:00,53.0,43.8,30.12,SSW,202,1.0,7.0,71,0.00,,,0.00,Weather View 32 v70,2013-06-05 07:43:00,
2013-06-05 03:49:00,52.0,43.2,30.12,SW,225,1.0,7.0,72,0.00,,,0.00,Weather View 32 v70,2013-06-05 07:49:00,
2013-06-05 03:55:00,52.0,43.2,30.13,SW,225,1.0,7.0,72,0.00,,,0.00,Weather View 32 v70,2013-06-05 07:55:00,
2013-06-05 04:04:00,52.0,43.6,30.13,SSW,202,2.0,4.0,73,0.00,,,0.00,Weather View 32 v70,2013-06-05 08:04:00,
2013-06-05 04:15:00,52.0,43.6,30.13,West,270,1.0,4.0,73,0.00,,,0.00,Weather View 32 v70,2013-06-05 08:15:00,
2013-06-05 04:24:00,52.0,43.6,30.13,WSW,248,1.0,5.0,73,0.00,,,0.00,Weather View 32 v70,2013-06-05 08:24:00,
2013-06-05 04:35:00,52.0,43.6,30.14,WNW,292,1.0,5.0,73,0.00,,,0.00,Weather View 32 v70,2013-06-05 08:35:00,
2013-06-05 04:44:00,52.0,42.9,30.14,West,270,1.0,5.0,71,0.00,,,0.00,Weather View 32 v70,2013-06-05 08:44:00,
2013-06-05 04:50:00,52.0,43.2,30.14,SW,225,2.0,5.0,72,0.00,,,0.00,Weather View 32 v70,2013-06-05 08:50:00,
2013-06-05 04:59:00,52.0,42.9,30.15,SW,225,1.0,5.0,71,0.00,,,0.00,Weather View 32 v70,2013-06-05 08:59:00,
2013-06-05 05:09:00,52.0,45.3,30.15,SE,135,1.0,6.0,78,0.00,,,0.00,Weather View 32 v70,2013-06-05 09:09:00,
2013-06-05 05:19:00,52.0,45.3,30.15,South,180,1.0,6.0,78,0.00,,,0.00,Weather View 32 v70,2013-06-05 09:19:00,
2013-06-05 05:29:00,50.0,43.7,30.16,SSW,202,1.0,6.0,79,0.00,,,0.00,Weather View 32 v70,2013-06-05 09:29:00,
2013-06-05 05:34:00,50.0,44.1,30.15,South,180,1.0,6.0,80,0.00,,,0.00,Weather View 32 v70,2013-06-05 09:34:00,
2013-06-05 05:39:00,50.0,44.4,30.16,WSW,248,0.0,6.0,81,0.00,,,0.00,Weather View 32 v70,2013-06-05 09:39:00,
2013-06-05 05:45:00,50.0,44.4,30.16,WSW,248,1.0,6.0,81,0.00,,,0.00,Weather View 32 v70,2013-06-05 09:45:00,
2013-06-05 05:54:00,51.0,44.4,30.16,South,180,0.0,6.0,78,0.00,,,0.00,Weather View 32 v70,2013-06-05 09:54:00,
2013-06-05 06:04:00,51.0,43.3,30.16,West,270,0.0,6.0,75,0.00,,,0.00,Weather View 32 v70,2013-06-05 10:04:00,
2013-06-05 06:09:00,52.0,44.3,30.16,SSW,202,1.0,5.0,75,0.00,,,0.00,Weather View 32 v70,2013-06-05 10:09:00,
2013-06-05 06:14:00,52.0,44.0,30.16,SW,225,3.0,5.0,74,0.00,,,0.00,Weather View 32 v70,2013-06-05 10:14:00,
2013-06-05 06:19:00,52.0,43.6,30.17,SE,135,1.0,6.0,73,0.00,,,0.00,Weather View 32 v70,2013-06-05 10:19:00,
2013-06-05 06:29:00,53.0,44.2,30.17,South,180,1.0,6.0,72,0.00,,,0.00,Weather View 32 v70,2013-06-05 10:29:00,
2013-06-05 06:40:00,53.0,43.5,30.17,WNW,292,3.0,8.0,70,0.00,,,0.00,Weather View 32 v70,2013-06-05 10:40:00,
2013-06-05 06:45:00,53.0,43.8,30.17,SSE,158,1.0,8.0,71,0.00,,,0.00,Weather View 32 v70,2013-06-05 10:45:00,
2013-06-05 06:55:00,54.0,44.4,30.17,West,270,3.0,8.0,70,0.00,,,0.00,Weather View 32 v70,2013-06-05 10:55:00,
2013-06-05 07:04:00,54.0,44.0,30.17,WNW,292,2.0,8.0,69,0.00,,,0.00,Weather View 32 v70,2013-06-05 11:04:00,
2013-06-05 07:14:00,54.0,43.7,30.18,WSW,248,1.0,8.0,68,0.00,,,0.00,Weather View 32 v70,2013-06-05 11:14:00,
2013-06-05 07:19:00,54.0,43.7,30.18,WSW,248,2.0,8.0,68,0.00,,,0.00,Weather View 32 v70,2013-06-05 11:19:00,
2013-06-05 07:24:00,54.0,44.0,30.18,West,270,1.0,8.0,69,0.00,,,0.00,Weather View 32 v70,2013-06-05 11:24:00,
2013-06-05 07:34:00,55.0,44.2,30.18,SE,135,3.0,8.0,67,0.00,,,0.00,Weather View 32 v70,2013-06-05 11:34:00,
2013-06-05 07:39:00,56.0,45.2,30.18,WNW,292,2.0,8.0,67,0.00,,,0.00,Weather View 32 v70,2013-06-05 11:39:00,
2013-06-05 07:45:00,57.0,44.9,30.18,SE,135,4.0,8.0,64,0.00,,,0.00,Weather View 32 v70,2013-06-05 11:45:00,
2013-06-05 07:54:00,58.0,45.0,30.18,SE,135,3.0,8.0,62,0.00,,,0.00,Weather View 32 v70,2013-06-05 11:54:00,
2013-06-05 08:00:00,59.0,45.5,30.18,SW,225,2.0,8.0,61,0.00,,,0.00,Weather View 32 v70,2013-06-05 12:00:00,
2013-06-05 08:09:00,59.0,44.2,30.19,SSW,202,1.0,6.0,58,0.00,,,0.00,Weather View 32 v70,2013-06-05 12:09:00,
2013-06-05 08:14:00,59.0,43.8,30.18,SSW,202,3.0,6.0,57,0.00,,,0.00,Weather View 32 v70,2013-06-05 12:14:00,
2013-06-05 08:19:00,60.0,44.7,30.19,SW,225,2.0,6.0,57,0.00,,,0.00,Weather View 32 v70,2013-06-05 12:19:00,
2013-06-05 08:29:00,60.0,43.3,30.19,WNW,292,2.0,6.0,54,0.00,,,0.00,Weather View 32 v70,2013-06-05 12:29:00,
2013-06-05 08:34:00,60.0,42.3,30.19,WNW,292,0.0,6.0,52,0.00,,,0.00,Weather View 32 v70,2013-06-05 12:34:00,
2013-06-05 08:44:00,61.0,43.2,30.19,SE,135,1.0,6.0,52,0.00,,,0.00,Weather View 32 v70,2013-06-05 12:44:00,
2013-06-05 08:49:00,61.0,42.2,30.19,WNW,292,1.0,6.0,50,0.00,,,0.00,Weather View 32 v70,2013-06-05 12:49:00,
2013-06-05 08:59:00,61.0,41.7,30.19,SE,135,2.0,8.0,49,0.00,,,0.00,Weather View 32 v70,2013-06-05 12:59:00,
2013-06-05 09:09:00,61.0,40.6,30.19,SW,225,6.0,11.0,47,0.00,,,0.00,Weather View 32 v70,2013-06-05 13:09:00,
2013-06-05 09:19:00,61.0,40.0,30.19,SSW,202,1.0,11.0,46,0.00,,,0.00,Weather View 32 v70,2013-06-05 13:19:00,
2013-06-05 09:29:00,62.0,40.9,30.19,South,180,3.0,11.0,46,0.00,,,0.00,Weather View 32 v70,2013-06-05 13:29:00,
2013-06-05 09:35:00,62.0,40.4,30.19,SW,225,5.0,11.0,45,0.00,,,0.00,Weather View 32 v70,2013-06-05 13:35:00,
2013-06-05 09:44:00,62.0,39.2,30.19,West,270,3.0,14.0,43,0.00,,,0.00,Weather View 32 v70,2013-06-05 13:44:00,
2013-06-05 09:50:00,62.0,40.4,30.19,SW,225,3.0,14.0,45,0.00,,,0.00,Weather View 32 v70,2013-06-05 13:50:00,
2013-06-05 09:59:00,63.0,41.8,30.19,West,270,3.0,14.0,46,0.00,,,0.00,Weather View 32 v70,2013-06-05 13:59:00,
2013-06-05 10:09:00,63.0,40.7,30.19,WSW,248,2.0,14.0,44,0.00,,,0.00,Weather View 32 v70,2013-06-05 14:09:00,
2013-06-05 10:14:00,63.0,40.7,30.19,WNW,292,3.0,14.0,44,0.00,,,0.00,Weather View 32 v70,2013-06-05 14:14:00,
2013-06-05 10:24:00,63.0,40.7,30.19,SW,225,2.0,14.0,44,0.00,,,0.00,Weather View 32 v70,2013-06-05 14:24:00,
2013-06-05 10:29:00,64.0,42.2,30.18,SE,135,1.0,14.0,45,0.00,,,0.00,Weather View 32 v70,2013-06-05 14:29:00,
2013-06-05 10:39:00,64.0,41.0,30.18,South,180,4.0,14.0,43,0.00,,,0.00,Weather View 32 v70,2013-06-05 14:39:00,
2013-06-05 10:48:00,64.0,42.2,30.17,SSW,202,1.0,14.0,45,0.00,,,0.00,Weather View 32 v70,2013-06-05 14:48:00,
2013-06-05 10:54:00,64.0,41.0,30.18,SW,225,1.0,8.0,43,0.00,,,0.00,Weather View 32 v70,2013-06-05 14:54:00,
2013-06-05 11:04:00,64.0,39.1,30.18,SW,225,1.0,9.0,40,0.00,,,0.00,Weather View 32 v70,2013-06-05 15:04:00,
2013-06-05 11:10:00,64.0,41.0,30.18,South,180,3.0,9.0,43,0.00,,,0.00,Weather View 32 v70,2013-06-05 15:10:00,
2013-06-05 11:19:00,65.0,41.3,30.17,West,270,3.0,9.0,42,0.00,,,0.00,Weather View 32 v70,2013-06-05 15:19:00,
2013-06-05 11:24:00,65.0,40.7,30.17,WSW,248,1.0,9.0,41,0.00,,,0.00,Weather View 32 v70,2013-06-05 15:24:00,
2013-06-05 11:35:00,65.0,40.7,30.17,WNW,292,4.0,9.0,41,0.00,,,0.00,Weather View 32 v70,2013-06-05 15:35:00,
2013-06-05 11:44:00,65.0,40.7,30.17,SSE,158,4.0,9.0,41,0.00,,,0.00,Weather View 32 v70,2013-06-05 15:44:00,
2013-06-05 11:50:00,66.0,42.8,30.17,SSW,202,3.0,9.0,43,0.00,,,0.00,Weather View 32 v70,2013-06-05 15:50:00,
2013-06-05 11:59:00,66.0,40.9,30.17,South,180,3.0,10.0,40,0.00,,,0.00,Weather View 32 v70,2013-06-05 15:59:00,
2013-06-05 12:04:00,66.0,41.6,30.17,SSW,202,3.0,10.0,41,0.00,,,0.00,Weather View 32 v70,2013-06-05 16:04:00,
2013-06-05 12:14:00,66.0,40.9,30.17,West,270,3.0,10.0,40,0.00,,,0.00,Weather View 32 v70,2013-06-05 16:14:00,
2013-06-05 12:19:00,67.0,42.5,30.17,SE,135,2.0,10.0,41,0.00,,,0.00,Weather View 32 v70,2013-06-05 16:19:00,
2013-06-05 12:24:00,67.0,41.2,30.17,SE,135,3.0,10.0,39,0.00,,,0.00,Weather View 32 v70,2013-06-05 16:24:00,
2013-06-05 12:34:00,68.0,42.7,30.17,South,180,1.0,10.0,40,0.00,,,0.00,Weather View 32 v70,2013-06-05 16:34:00,
2013-06-05 12:44:00,68.0,44.0,30.17,SW,225,1.0,10.0,42,0.00,,,0.00,Weather View 32 v70,2013-06-05 16:44:00,
2013-06-05 12:54:00,69.0,41.6,30.17,SSE,158,5.0,10.0,37,0.00,,,0.00,Weather View 32 v70,2013-06-05 16:54:00,
2013-06-05 12:59:00,69.0,40.9,30.17,WNW,292,1.0,8.0,36,0.00,,,0.00,Weather View 32 v70,2013-06-05 16:59:00,
2013-06-05 13:09:00,70.0,41.7,30.16,SW,225,1.0,7.0,36,0.00,,,0.00,Weather View 32 v70,2013-06-05 17:09:00,
2013-06-05 13:20:00,70.0,42.5,30.17,WSW,248,2.0,7.0,37,0.00,,,0.00,Weather View 32 v70,2013-06-05 17:20:00,
2013-06-05 13:24:00,70.0,41.7,30.17,SSE,158,4.0,14.0,36,0.00,,,0.00,Weather View 32 v70,2013-06-05 17:24:00,
2013-06-05 13:34:00,70.0,41.0,30.16,South,180,2.0,14.0,35,0.00,,,0.00,Weather View 32 v70,2013-06-05 17:34:00,
2013-06-05 13:44:00,70.0,42.5,30.16,SE,135,3.0,14.0,37,0.00,,,0.00,Weather View 32 v70,2013-06-05 17:44:00,
2013-06-05 13:49:00,70.0,41.7,30.16,South,180,3.0,14.0,36,0.00,,,0.00,Weather View 32 v70,2013-06-05 17:49:00,
2013-06-05 13:54:00,70.0,43.2,30.16,SE,135,5.0,14.0,38,0.00,,,0.00,Weather View 32 v70,2013-06-05 17:54:00,
2013-06-05 14:04:00,71.0,41.9,30.15,WSW,248,3.0,14.0,35,0.00,,,0.00,Weather View 32 v70,2013-06-05 18:04:00,
2013-06-05 14:14:00,71.0,41.9,30.15,SW,225,3.0,14.0,35,0.00,,,0.00,Weather View 32 v70,2013-06-05 18:14:00,
2013-06-05 14:25:00,70.0,41.7,30.15,South,180,2.0,7.0,36,0.00,,,0.00,Weather View 32 v70,2013-06-05 18:25:00,
2013-06-05 14:29:00,70.0,47.0,30.15,SSE,158,1.0,7.0,44,0.00,,,0.00,Weather View 32 v70,2013-06-05 18:29:00,
2013-06-05 14:39:00,70.0,47.0,30.14,SSW,202,3.0,6.0,44,0.00,,,0.00,Weather View 32 v70,2013-06-05 18:39:00,
2013-06-05 14:44:00,70.0,43.2,30.14,SE,135,2.0,6.0,38,0.00,,,0.00,Weather View 32 v70,2013-06-05 18:44:00,
2013-06-05 14:50:00,70.0,43.8,30.14,West,270,1.0,6.0,39,0.00,,,0.00,Weather View 32 v70,2013-06-05 18:50:00,
2013-06-05 14:59:00,71.0,43.3,30.14,WNW,292,1.0,6.0,37,0.00,,,0.00,Weather View 32 v70,2013-06-05 18:59:00,
2013-06-05 15:05:00,71.0,38.8,30.14,SE,135,1.0,6.0,31,0.00,,,0.00,Weather View 32 v70,2013-06-05 19:05:00,
2013-06-05 15:14:00,72.0,40.5,30.13,WSW,248,4.0,6.0,32,0.00,,,0.00,Weather View 32 v70,2013-06-05 19:14:00,
2013-06-05 15:24:00,72.0,39.6,30.14,WSW,248,3.0,7.0,31,0.00,,,0.00,Weather View 32 v70,2013-06-05 19:24:00,
2013-06-05 15:29:00,72.0,40.5,30.13,SSE,158,3.0,7.0,32,0.00,,,0.00,Weather View 32 v70,2013-06-05 19:29:00,
2013-06-05 15:34:00,72.0,40.5,30.13,South,180,3.0,7.0,32,0.00,,,0.00,Weather View 32 v70,2013-06-05 19:34:00,
2013-06-05 15:44:00,72.0,41.2,30.13,WSW,248,3.0,7.0,33,0.00,,,0.00,Weather View 32 v70,2013-06-05 19:44:00,
2013-06-05 15:50:00,72.0,42.0,30.13,West,270,2.0,7.0,34,0.00,,,0.00,Weather View 32 v70,2013-06-05 19:50:00,
2013-06-05 15:59:00,73.0,42.1,30.14,WSW,248,2.0,10.0,33,0.00,,,0.00,Weather View 32 v70,2013-06-05 19:59:00,
2013-06-05 16:09:00,72.0,40.5,30.13,SE,135,1.0,10.0,32,0.00,,,0.00,Weather View 32 v70,2013-06-05 20:09:00,
2013-06-05 16:14:00,73.0,42.1,30.12,South,180,1.0,10.0,33,0.00,,,0.00,Weather View 32 v70,2013-06-05 20:14:00,
2013-06-05 16:19:00,73.0,41.3,30.12,SE,135,2.0,10.0,32,0.00,,,0.00,Weather View 32 v70,2013-06-05 20:19:00,
2013-06-05 16:29:00,72.0,42.8,30.11,SSE,158,3.0,10.0,35,0.00,,,0.00,Weather View 32 v70,2013-06-05 20:29:00,
2013-06-05 16:34:00,73.0,42.9,30.12,WNW,292,1.0,10.0,34,0.00,,,0.00,Weather View 32 v70,2013-06-05 20:34:00,
2013-06-05 16:39:00,73.0,42.9,30.12,South,180,3.0,10.0,34,0.00,,,0.00,Weather View 32 v70,2013-06-05 20:39:00,
2013-06-05 16:49:00,73.0,45.1,30.12,South,180,1.0,10.0,37,0.00,,,0.00,Weather View 32 v70,2013-06-05 20:49:00,
2013-06-05 16:54:00,73.0,46.5,30.11,SSW,202,0.0,6.0,39,0.00,,,0.00,Weather View 32 v70,2013-06-05 20:54:00,
2013-06-05 17:04:00,73.0,43.7,30.11,SSE,158,1.0,6.0,35,0.00,,,0.00,Weather View 32 v70,2013-06-05 21:04:00,
2013-06-05 17:10:00,73.0,42.9,30.11,SW,225,2.0,6.0,34,0.00,,,0.00,Weather View 32 v70,2013-06-05 21:10:00,
2013-06-05 17:14:00,73.0,44.4,30.11,West,270,1.0,6.0,36,0.00,,,0.00,Weather View 32 v70,2013-06-05 21:14:00,
2013-06-05 17:19:00,73.0,45.8,30.11,SSE,158,1.0,6.0,38,0.00,,,0.00,Weather View 32 v70,2013-06-05 21:19:00,
2013-06-05 17:24:00,73.0,48.5,30.11,SSE,158,1.0,5.0,42,0.00,,,0.00,Weather View 32 v70,2013-06-05 21:24:00,
2013-06-05 17:34:00,72.0,47.6,30.11,SW,225,1.0,5.0,42,0.00,,,0.00,Weather View 32 v70,2013-06-05 21:34:00,
2013-06-05 17:39:00,71.0,48.5,30.10,SSE,158,1.0,5.0,45,0.00,,,0.00,Weather View 32 v70,2013-06-05 21:39:00,
2013-06-05 17:45:00,70.0,47.0,30.11,SE,135,1.0,5.0,44,0.00,,,0.00,Weather View 32 v70,2013-06-05 21:45:00,
2013-06-05 17:52:00,70.0,48.8,30.11,South,180,1.0,5.0,47,0.00,,,0.00,Weather View 32 v70,2013-06-05 21:52:00,
2013-06-05 17:59:00,69.0,46.1,30.11,SSE,158,0.0,4.0,44,0.00,,,0.00,Weather View 32 v70,2013-06-05 21:59:00,
2013-06-05 18:04:00,69.0,47.3,30.11,SSE,158,0.0,4.0,46,0.00,,,0.00,Weather View 32 v70,2013-06-05 22:04:00,
2013-06-05 18:14:00,69.0,47.9,30.11,SSW,202,0.0,3.0,47,0.00,,,0.00,Weather View 32 v70,2013-06-05 22:14:00,
2013-06-05 18:24:00,69.0,50.6,30.11,West,270,0.0,3.0,52,0.00,,,0.00,Weather View 32 v70,2013-06-05 22:24:00,
2013-06-05 18:34:00,69.0,50.6,30.12,SE,135,1.0,3.0,52,0.00,,,0.00,Weather View 32 v70,2013-06-05 22:34:00,
2013-06-05 18:44:00,68.0,50.7,30.12,WNW,292,0.0,3.0,54,0.00,,,0.00,Weather View 32 v70,2013-06-05 22:44:00,
2013-06-05 18:49:00,67.0,50.3,30.12,WSW,248,1.0,2.0,55,0.00,,,0.00,Weather View 32 v70,2013-06-05 22:49:00,
2013-06-05 18:59:00,65.0,49.4,30.13,WNW,292,1.0,2.0,57,0.00,,,0.00,Weather View 32 v70,2013-06-05 22:59:00,
2013-06-05 19:04:00,65.0,49.8,30.13,WNW,292,0.0,2.0,58,0.00,,,0.00,Weather View 32 v70,2013-06-05 23:04:00,
2013-06-05 19:14:00,64.0,47.9,30.14,WSW,248,1.0,2.0,56,0.00,,,0.00,Weather View 32 v70,2013-06-05 23:14:00,
2013-06-05 19:24:00,64.0,48.9,30.13,WNW,292,0.0,2.0,58,0.00,,,0.00,Weather View 32 v70,2013-06-05 23:24:00,
2013-06-05 19:29:00,63.0,47.5,30.13,WNW,292,0.0,2.0,57,0.00,,,0.00,Weather View 32 v70,2013-06-05 23:29:00,
2013-06-05 19:39:00,63.0,48.0,30.13,WSW,248,0.0,2.0,58,0.00,,,0.00,Weather View 32 v70,2013-06-05 23:39:00,
2013-06-05 19:44:00,63.0,48.4,30.13,WNW,292,0.0,2.0,59,0.00,,,0.00,Weather View 32 v70,2013-06-05 23:44:00,
2013-06-05 19:53:00,63.0,48.4,30.13,WNW,292,0.0,2.0,59,0.00,,,0.00,Weather View 32 v70,2013-06-05 23:53:00,
2013-06-05 19:59:00,62.0,47.9,30.13,WSW,248,0.0,1.0,60,0.00,,,0.00,Weather View 32 v70,2013-06-05 23:59:00,
2013-06-05 20:09:00,61.0,46.5,30.13,WNW,292,1.0,2.0,59,0.00,,,0.00,Weather View 32 v70,2013-06-06 00:09:00,
2013-06-05 20:19:00,61.0,46.1,30.13,West,270,1.0,2.0,58,0.00,,,0.00,Weather View 32 v70,2013-06-06 00:19:00,
2013-06-05 20:29:00,60.0,45.6,30.13,WSW,248,1.0,2.0,59,0.00,,,0.00,Weather View 32 v70,2013-06-06 00:29:00,
2013-06-05 20:34:00,60.0,45.1,30.13,WNW,292,1.0,2.0,58,0.00,,,0.00,Weather View 32 v70,2013-06-06 00:34:00,
2013-06-05 20:44:00,60.0,44.7,30.14,WNW,292,1.0,2.0,57,0.00,,,0.00,Weather View 32 v70,2013-06-06 00:44:00,
2013-06-05 20:53:00,59.0,42.8,30.14,West,270,0.0,2.0,55,0.00,,,0.00,Weather View 32 v70,2013-06-06 00:53:00,
2013-06-05 20:59:00,59.0,43.8,30.15,SW,225,0.0,2.0,57,0.00,,,0.00,Weather View 32 v70,2013-06-06 00:59:00,
2013-06-05 21:09:00,58.0,43.3,30.15,WNW,292,0.0,2.0,58,0.00,,,0.00,Weather View 32 v70,2013-06-06 01:09:00,
2013-06-05 21:19:00,58.0,47.1,30.15,SE,135,0.0,2.0,67,0.00,,,0.00,Weather View 32 v70,2013-06-06 01:19:00,
2013-06-05 21:29:00,58.0,48.2,30.16,WNW,292,0.0,2.0,70,0.00,,,0.00,Weather View 32 v70,2013-06-06 01:29:00,
2013-06-05 21:34:00,58.0,48.6,30.16,SW,225,2.0,5.0,71,0.00,,,0.00,Weather View 32 v70,2013-06-06 01:34:00,
2013-06-05 21:39:00,58.0,48.6,30.16,SSW,202,1.0,5.0,71,0.00,,,0.00,Weather View 32 v70,2013-06-06 01:39:00,
2013-06-05 21:49:00,59.0,48.8,30.16,SSE,158,1.0,5.0,69,0.00,,,0.00,Weather View 32 v70,2013-06-06 01:49:00,
2013-06-05 21:54:00,59.0,47.6,30.17,SSW,202,0.0,6.0,66,0.00,,,0.00,Weather View 32 v70,2013-06-06 01:54:00,
2013-06-05 22:04:00,58.0,47.5,30.17,WNW,292,1.0,6.0,68,0.00,,,0.00,Weather View 32 v70,2013-06-06 02:04:00,
2013-06-05 22:14:00,58.0,47.5,30.17,West,270,1.0,6.0,68,0.00,,,0.00,Weather View 32 v70,2013-06-06 02:14:00,
2013-06-05 22:19:00,58.0,47.5,30.17,South,180,0.0,6.0,68,0.00,,,0.00,Weather View 32 v70,2013-06-06 02:19:00,
2013-06-05 22:29:00,58.0,46.7,30.17,SW,225,0.0,6.0,66,0.00,,,0.00,Weather View 32 v70,2013-06-06 02:29:00,
2013-06-05 22:39:00,57.0,46.1,30.17,WNW,292,0.0,6.0,67,0.00,,,0.00,Weather View 32 v70,2013-06-06 02:39:00,
2013-06-05 22:49:00,57.0,46.5,30.17,WSW,248,0.0,6.0,68,0.00,,,0.00,Weather View 32 v70,2013-06-06 02:49:00,
2013-06-05 22:55:00,57.0,46.5,30.17,SSW,202,0.0,2.0,68,0.00,,,0.00,Weather View 32 v70,2013-06-06 02:55:00,
2013-06-05 23:04:00,57.0,47.3,30.18,West,270,0.0,2.0,70,0.00,,,0.00,Weather View 32 v70,2013-06-06 03:04:00,
2013-06-05 23:10:00,57.0,47.7,30.18,WSW,248,0.0,2.0,71,0.00,,,0.00,Weather View 32 v70,2013-06-06 03:10:00,
2013-06-05 23:19:00,57.0,48.4,30.18,SSE,158,0.0,2.0,73,0.00,,,0.00,Weather View 32 v70,2013-06-06 03:19:00,
2013-06-05 23:29:00,56.0,47.8,30.18,WNW,292,0.0,2.0,74,0.00,,,0.00,Weather View 32 v70,2013-06-06 03:29:00,
2013-06-05 23:34:00,56.0,47.8,30.18,West,270,1.0,2.0,74,0.00,,,0.00,Weather View 32 v70,2013-06-06 03:34:00,
2013-06-05 23:41:00,56.0,47.8,30.18,West,270,1.0,2.0,74,0.00,,,0.00,Weather View 32 v70,2013-06-06 03:41:00,
2013-06-05 23:49:00,56.0,48.5,30.18,West,270,0.0,1.0,76,0.00,,,0.00,Weather View 32 v70,2013-06-06 03:49:00,
2013-06-05 23:54:00,55.0,47.9,30.18,West,270,0.0,1.0,77,0.00,,,0.00,Weather View 32 v70,2013-06-06 03:54:00,